Location: Monrovia
(34.7865°N, 86.7139°W)
Time: 14:49:35
(UTC+00:00)

Cosmos 1484 Rocket - Pass Details

Date: 14 July 2020
Orbit: 505 x 560 km, 97.4° (Epoch: 13 August)

Event Time Altitude Azimuth Distance (km) Brightness Sun altitude
Rises 09:59:21 0° 21° (NNE) 2,682 7.3 -8.8°
Reaches altitude 10° 10:01:37 10° 30° (NNE) 1,777 6.6 -8.4°
Maximum altitude 10:05:10 36° 98° (E) 847 4.3 -7.8°
Drops below altitude 10° 10:08:37 10° 165° (SSE) 1,737 5.2 -7.2°
Sets 10:10:48 0° 175° (S) 2,611 6.0 -6.8°
